San Antonio, TX

7:57 PM CST on February 06, 2016 (GMT -0600)
San Antonio International

Weather History for KSAT - October, 2012

Change the Weather History Date:

Friday, October 5, 2012

  Actual Average Record
Temperature  
Mean Temperature 78 °F 74 °F  
Max Temperature 87 °F 85 °F 95 °F (1937)
Min Temperature 68 °F 63 °F 44 °F (1975)
Degree Days  
Heating Degree Days 0 0  
Month to date heating degree days 0 0  
Since 1 July heating degree days 0 2  
Cooling Degree Days 13 9  
Month to date cooling degree days 43 49  
Year to date cooling degree days 3283 2883  
Growing Degree Days 28 (Base 50)    
Moisture  
Dew Point 68 °F    
Average Humidity 73    
Maximum Humidity 100    
Minimum Humidity 45    
Precipitation  
Precipitation 0.00 in 0.12 in 2.76 in (1969)
Month to date precipitation 0.49 0.60  
Year to date precipitation 36.85 24.57  
Snow  
Snow 0.00 in - - ()
Month to date snowfall 0.0  
Since 1 July snowfall 0.0  
Since 1 September snowfall 0.0  
Snow Depth 0.00 in    
Sea Level Pressure  
Sea Level Pressure 30.03 in    
Wind  
Wind Speed 8 mph (SSE)    
Max Wind Speed 16 mph    
Max Gust Speed 21 mph    
Visibility 9 miles    
Events      
T = Trace of Precipitation, MM = Missing Value Source: NWS Daily Summary

Daily Weather History Graph

Daily Weather History Graph

Search for Another Location

Airport or City:

Trip Planner

Search our weather history database for the weather conditions in past years. The results will help you decide how hot, cold, wet, or windy it might be!

Date:

Astronomy

Oct. 05, 2012 Rise Set
Actual Time 7:29 AM CDT 7:14 PM CDT
Civil Twilight 7:05 AM CDT 7:37 PM CDT
Nautical Twilight 6:38 AM CDT 8:05 PM CDT
Astronomical Twilight 6:10 AM CDT 8:33 PM CDT
Moon 10:59 PM CDT (10/5) 12:17 PM CDT (10/5)
Length of Visible Light 12h 31m
Length of Day
11h 44m
Waning Gibbous, 74% of the Moon is Illuminated
Oct 5
Waning Gibbous
Oct 8
Last Quarter
Oct 15
New
Oct 21
First Quarter
Oct 29
Full

Hourly Weather History & Observations

Time (CDT) Temp. Heat Index Dew Point Humidity Pressure Visibility Wind Dir Wind Speed Gust Speed Precip Events Conditions
12:53 AM 75.0 °F - 72.0 °F 90% 30.05 in 10.0 mi SE 8.1 mph - N/A   Overcast
1:53 AM 75.0 °F - 72.0 °F 90% 30.04 in 10.0 mi SE 6.9 mph - N/A   Overcast
2:16 AM 75.2 °F - 71.6 °F 89% 30.09 in 10.0 mi SE 6.9 mph - N/A   Overcast
2:53 AM 73.4 °F - 71.6 °F 94% 30.08 in 10.0 mi SE 4.6 mph - N/A   Overcast
3:53 AM 73.0 °F - 72.0 °F 96% 30.03 in 10.0 mi SSE 4.6 mph - N/A   Overcast
4:53 AM 71.1 °F - 70.0 °F 96% 30.02 in 10.0 mi SE 4.6 mph - N/A   Mostly Cloudy
5:39 AM 69.8 °F - 69.8 °F 100% 30.08 in 7.0 mi ESE 4.6 mph - N/A   Mostly Cloudy
5:53 AM 69.1 °F - 69.1 °F 100% 30.03 in 7.0 mi ESE 5.8 mph - N/A   Mostly Cloudy
6:09 AM 68.0 °F - 68.0 °F 100% 30.09 in 7.0 mi ESE 4.6 mph - N/A   Scattered Clouds
6:42 AM 68.0 °F - 68.0 °F 100% 30.09 in 6.0 mi ESE 6.9 mph - N/A   Mostly Cloudy
6:53 AM 69.1 °F - 69.1 °F 100% 30.04 in 6.0 mi ESE 5.8 mph - N/A   Mostly Cloudy
7:09 AM 69.8 °F - 69.8 °F 100% 30.09 in 5.0 mi ESE 4.6 mph - N/A   Overcast
7:18 AM 69.8 °F - 69.8 °F 100% 30.10 in 4.0 mi ESE 4.6 mph - N/A   Overcast
7:32 AM 69.8 °F - 69.8 °F 100% 30.10 in 2.5 mi ESE 5.8 mph - N/A   Overcast
7:53 AM 70.0 °F - 70.0 °F 100% 30.05 in 2.5 mi SE 6.9 mph - N/A   Overcast
8:23 AM 71.6 °F - 71.6 °F 100% 30.10 in 5.0 mi SSE 6.9 mph - N/A   Overcast
8:53 AM 71.1 °F - 70.0 °F 96% 30.06 in 5.0 mi SSE 8.1 mph - N/A   Overcast
9:33 AM 73.4 °F - 69.8 °F 88% 30.12 in 10.0 mi South 10.4 mph - N/A   Overcast
9:53 AM 75.0 °F - 71.1 °F 87% 30.07 in 10.0 mi South 11.5 mph - N/A   Mostly Cloudy
10:08 AM 75.2 °F - 69.8 °F 83% 30.12 in 10.0 mi South 13.8 mph - N/A   Mostly Cloudy
10:53 AM 77.0 °F - 69.1 °F 76% 30.07 in 10.0 mi South 12.7 mph - N/A   Scattered Clouds
11:53 AM 81.0 °F 82.7 °F 64.9 °F 58% 30.05 in 10.0 mi South 11.5 mph 18.4 mph N/A   Partly Cloudy
12:53 PM 82.9 °F 84.6 °F 64.9 °F 54% 30.03 in 10.0 mi SSE 8.1 mph - N/A   Scattered Clouds
1:53 PM 84.0 °F 85.8 °F 64.9 °F 53% 30.01 in 10.0 mi South 12.7 mph 19.6 mph N/A   Partly Cloudy
2:53 PM 86.0 °F 87.6 °F 64.9 °F 49% 29.97 in 10.0 mi South 11.5 mph - N/A   Partly Cloudy
3:53 PM 87.1 °F 88.9 °F 64.9 °F 48% 29.95 in 10.0 mi SSE 11.5 mph - N/A   Partly Cloudy
4:53 PM 86.0 °F 87.3 °F 64.0 °F 48% 29.93 in 10.0 mi South 9.2 mph - N/A   Partly Cloudy
5:53 PM 86.0 °F 86.8 °F 63.0 °F 46% 29.92 in 10.0 mi SSE 12.7 mph - N/A   Partly Cloudy
6:53 PM 84.0 °F 84.5 °F 62.1 °F 47% 29.93 in 10.0 mi South 8.1 mph - N/A   Partly Cloudy
7:53 PM 81.0 °F 82.5 °F 64.0 °F 56% 29.93 in 10.0 mi SSE 3.5 mph - N/A   Partly Cloudy
8:53 PM 78.1 °F - 64.9 °F 64% 29.94 in 10.0 mi SSE 6.9 mph - N/A   Partly Cloudy
9:53 PM 75.0 °F - 66.0 °F 73% 29.95 in 10.0 mi ESE 4.6 mph - N/A   Partly Cloudy
10:53 PM 75.0 °F - 69.1 °F 82% 29.96 in 10.0 mi SSE 8.1 mph - N/A   Clear
11:53 PM 73.9 °F - 69.1 °F 85% 29.96 in 10.0 mi SSE 8.1 mph - N/A   Clear